When you browse on this site, cookies collect data to enhance your experience and personalize the content and advertising you see.
Visit our Privacy Policy to learn more. By continuing to use the site, you agree to this use of cookies and data.
  • In France
  • List of Countries
  • For 7 days
  • Water Temperature
  • Satellite Maps
  • Weather Map
  • Weather Widgets
  • user-avatar
    Login

    Hourly Weather Hitchin

    Today, 19 June, Wednesday

    Time Temperature Precipitation Wind Pressure Humidity
    00:00 +13°C° 0 mm 1 mps 749 mmHg 96%
    01:00 +13°C° 0 mm 1 mps 749 mmHg 96%
    02:00 +13°C° 0 mm 2 mps 748 mmHg 97%
    03:00 +13°C° 0 mm 2 mps 748 mmHg 97%
    04:00 +13°C° 0.2 mm 2 mps 747 mmHg 97%
    05:00 +14°C° 0.2 mm 2 mps 747 mmHg 97%
    06:00 +14°C° 0.2 mm 3 mps 747 mmHg 96%
    07:00 +14°C° 0 mm 3 mps 747 mmHg 95%
    08:00 +16°C° 0 mm 3 mps 747 mmHg 93%
    09:00 +17°C° 0 mm 3 mps 747 mmHg 92%
    10:00 +17°C° 0 mm 3 mps 747 mmHg 90%
    11:00 +17°C° 0 mm 3 mps 748 mmHg 88%
    12:00 +17°C° 0 mm 3 mps 748 mmHg 87%
    13:00 +18°C° 0.3 mm 3 mps 748 mmHg 85%
    14:00 +18°C° 0.3 mm 3 mps 748 mmHg 83%
    15:00 +19°C° 0.3 mm 3 mps 748 mmHg 82%
    16:00 +18°C° 0.3 mm 3 mps 748 mmHg 84%
    17:00 +18°C° 0.3 mm 3 mps 748 mmHg 86%
    18:00 +18°C° 0.3 mm 3 mps 748 mmHg 88%
    19:00 +16°C° 0 mm 3 mps 748 mmHg 90%
    20:00 +14°C° 0 mm 3 mps 749 mmHg 91%
    21:00 +13°C° 0 mm 3 mps 749 mmHg 93%
    22:00 +12°C° 0 mm 3 mps 749 mmHg 93%
    23:00 +11°C° 0 mm 3 mps 749 mmHg 93%

    Tomorrow, 20 June, Thursday

    Time Temperature Precipitation Wind Pressure Humidity
    00:00 +10°C° 0 mm 3 mps 749 mmHg 93%
    01:00 +9°C° 0 mm 3 mps 749 mmHg 93%
    02:00 +8°C° 0 mm 3 mps 749 mmHg 93%
    03:00 +8°C° 0 mm 3 mps 749 mmHg 93%
    04:00 +8°C° 0 mm 3 mps 750 mmHg 93%
    05:00 +8°C° 0 mm 4 mps 750 mmHg 92%
    06:00 +10°C° 0 mm 4 mps 750 mmHg 92%
    07:00 +12°C° 0 mm 4 mps 750 mmHg 88%
    08:00 +13°C° 0 mm 4 mps 751 mmHg 83%
    09:00 +15°C° 0 mm 4 mps 751 mmHg 79%
    10:00 +15°C° 0.2 mm 4 mps 751 mmHg 76%
    11:00 +17°C° 0.2 mm 4 mps 751 mmHg 74%
    12:00 +17°C° 0.2 mm 4 mps 751 mmHg 72%
    13:00 +17°C° 0.3 mm 4 mps 752 mmHg 74%
    14:00 +16°C° 0.3 mm 5 mps 752 mmHg 77%
    15:00 +15°C° 0.3 mm 5 mps 752 mmHg 79%
    16:00 +15°C° 0.1 mm 4 mps 752 mmHg 80%
    17:00 +15°C° 0.1 mm 4 mps 752 mmHg 81%
    18:00 +15°C° 0.1 mm 4 mps 752 mmHg 83%
    19:00 +13°C° 0.1 mm 3 mps 752 mmHg 86%
    20:00 +12°C° 0.1 mm 3 mps 753 mmHg 89%
    21:00 +11°C° 0.1 mm 3 mps 753 mmHg 92%
    22:00 +10°C° 0 mm 3 mps 753 mmHg 93%
    23:00 +9°C° 0 mm 3 mps 753 mmHg 93%

    Day after tomorrow, 21 June, Friday

    Time Temperature Precipitation Wind Pressure Humidity
    00:00 +8°C° 0 mm 3 mps 754 mmHg 94%
    01:00 +8°C° 0 mm 3 mps 754 mmHg 94%
    02:00 +7°C° 0 mm 3 mps 754 mmHg 94%
    03:00 +7°C° 0 mm 3 mps 754 mmHg 95%
    04:00 +8°C° 0 mm 3 mps 754 mmHg 93%
    05:00 +7°C° 0 mm 4 mps 754 mmHg 92%
    06:00 +8°C° 0 mm 4 mps 755 mmHg 90%
    07:00 +11°C° 0 mm 4 mps 755 mmHg 85%
    08:00 +12°C° 0 mm 4 mps 755 mmHg 80%
    09:00 +14°C° 0 mm 4 mps 756 mmHg 75%
    10:00 +15°C° 0.1 mm 4 mps 756 mmHg 72%
    11:00 +15°C° 0.1 mm 4 mps 756 mmHg 69%
    12:00 +17°C° 0.1 mm 4 mps 756 mmHg 66%
    13:00 +17°C° 0.1 mm 4 mps 756 mmHg 66%
    14:00 +17°C° 0.1 mm 4 mps 756 mmHg 67%
    15:00 +17°C° 0.1 mm 3 mps 756 mmHg 67%
    16:00 +17°C° 0.1 mm 3 mps 756 mmHg 69%
    17:00 +17°C° 0.1 mm 2 mps 757 mmHg 72%
    18:00 +16°C° 0.1 mm 2 mps 757 mmHg 74%
    19:00 +15°C° 0 mm 2 mps 757 mmHg 78%
    20:00 +13°C° 0 mm 1 mps 757 mmHg 82%
    21:00 +12°C° 0 mm 1 mps 758 mmHg 86%
    22:00 +11°C° 0 mm 1 mps 758 mmHg 88%
    23:00 +11°C° 0 mm 1 mps 758 mmHg 89%

    22 June, Saturday

    Time Temperature Precipitation Wind Pressure Humidity
    00:00 +10°C° 0 mm 1 mps 758 mmHg 90%
    01:00 +9°C° 0 mm 1 mps 758 mmHg 90%
    02:00 +8°C° 0 mm 0 mps 758 mmHg 90%
    03:00 +8°C° 0 mm 0 mps 758 mmHg 90%
    04:00 +9°C° 0 mm 0 mps 758 mmHg 89%
    05:00 +10°C° 0 mm 0 mps 758 mmHg 87%
    06:00 +12°C° 0 mm 1 mps 758 mmHg 86%
    07:00 +13°C° 0 mm 1 mps 758 mmHg 81%
    08:00 +15°C° 0 mm 1 mps 758 mmHg 75%
    09:00 +18°C° 0 mm 1 mps 758 mmHg 70%
    10:00 +18°C° 0.1 mm 1 mps 758 mmHg 68%
    11:00 +19°C° 0.1 mm 1 mps 758 mmHg 66%
    12:00 +19°C° 0.1 mm 1 mps 758 mmHg 64%
    13:00 +19°C° 0.1 mm 1 mps 758 mmHg 64%
    14:00 +19°C° 0.1 mm 1 mps 758 mmHg 64%
    15:00 +20°C° 0.1 mm 1 mps 758 mmHg 64%
    16:00 +20°C° 0 mm 1 mps 758 mmHg 67%
    17:00 +19°C° 0 mm 1 mps 758 mmHg 70%
    18:00 +19°C° 0 mm 1 mps 757 mmHg 73%
    19:00 +16°C° 0 mm 2 mps 758 mmHg 78%
    20:00 +15°C° 0 mm 2 mps 758 mmHg 83%
    21:00 +13°C° 0 mm 2 mps 758 mmHg 88%
    22:00 +12°C° 0 mm 2 mps 758 mmHg 90%
    23:00 +12°C° 0 mm 2 mps 758 mmHg 91%

    23 June, Sunday

    Time Temperature Precipitation Wind Pressure Humidity
    00:00 +10°C° 0 mm 2 mps 758 mmHg 92%
    01:00 +10°C° 0 mm 2 mps 758 mmHg 92%
    02:00 +10°C° 0 mm 2 mps 758 mmHg 92%
    03:00 +9°C° 0 mm 2 mps 758 mmHg 92%
    04:00 +10°C° 0 mm 2 mps 758 mmHg 90%
    05:00 +12°C° 0 mm 2 mps 758 mmHg 88%
    06:00 +13°C° 0 mm 2 mps 758 mmHg 86%
    07:00 +13°C° 0 mm 3 mps 758 mmHg 83%
    08:00 +15°C° 0 mm 4 mps 758 mmHg 81%
    09:00 +17°C° 0 mm 4 mps 758 mmHg 78%
    10:00 +17°C° 0 mm 5 mps 758 mmHg 75%
    11:00 +19°C° 0 mm 5 mps 758 mmHg 73%
    12:00 +19°C° 0 mm 6 mps 758 mmHg 70%
    13:00 +19°C° 0 mm 6 mps 758 mmHg 71%
    14:00 +19°C° 0 mm 6 mps 757 mmHg 72%
    15:00 +19°C° 0 mm 6 mps 757 mmHg 73%
    16:00 +17°C° 0 mm 6 mps 757 mmHg 76%
    17:00 +17°C° 0 mm 5 mps 757 mmHg 78%
    18:00 +16°C° 0 mm 5 mps 757 mmHg 81%
    19:00 +15°C° 0 mm 5 mps 757 mmHg 80%
    20:00 +15°C° 0 mm 5 mps 757 mmHg 79%
    21:00 +14°C° 0 mm 5 mps 757 mmHg 79%
    22:00 +14°C° 0 mm 5 mps 757 mmHg 81%
    23:00 +14°C° 0 mm 5 mps 757 mmHg 84%

    24 June, Monday

    Time Temperature Precipitation Wind Pressure Humidity
    00:00 +14°C° 0 mm 6 mps 756 mmHg 87%
    01:00 +14°C° 0 mm 6 mps 756 mmHg 85%
    02:00 +15°C° 0 mm 6 mps 756 mmHg 84%
    03:00 +15°C° 0 mm 7 mps 755 mmHg 82%
    04:00 +15°C° 0.1 mm 7 mps 755 mmHg 83%
    05:00 +15°C° 0.1 mm 7 mps 755 mmHg 85%
    06:00 +15°C° 0.1 mm 8 mps 755 mmHg 86%
    07:00 +15°C° 0.1 mm 7 mps 755 mmHg 88%
    08:00 +15°C° 0.1 mm 7 mps 755 mmHg 90%
    09:00 +15°C° 0.1 mm 7 mps 755 mmHg 92%
    10:00 +16°C° 0.1 mm 7 mps 755 mmHg 90%
    11:00 +17°C° 0.1 mm 7 mps 755 mmHg 87%
    12:00 +18°C° 0.1 mm 7 mps 755 mmHg 85%
    13:00 +18°C° 0 mm 7 mps 754 mmHg 84%
    14:00 +18°C° 0 mm 7 mps 754 mmHg 83%
    15:00 +20°C° 0 mm 6 mps 754 mmHg 82%
    16:00 +20°C° 0.1 mm 6 mps 754 mmHg 83%
    17:00 +20°C° 0.1 mm 6 mps 754 mmHg 85%
    18:00 +20°C° 0.1 mm 6 mps 754 mmHg 86%
    19:00 +20°C° 0.2 mm 5 mps 754 mmHg 87%
    20:00 +19°C° 0.2 mm 4 mps 754 mmHg 87%
    21:00 +19°C° 0.2 mm 3 mps 755 mmHg 88%
    22:00 +19°C° 0.1 mm 3 mps 755 mmHg 89%
    23:00 +18°C° 0.1 mm 3 mps 755 mmHg 89%
    Show more